EW0380 Weather Reports


Display with metric or nautical units.
time (UTC)temp
F
wind
direction
speed
MPH
gust
MPH
rain 1hr
in
rain 24hr
in
rain mn
in
humidity
%
barometer
mb
20260503233027 58 228 11.0 13.0 0.00 0.00 0.00 48 1012.6
20260503232052 59 222 12.0 17.0 0.00 0.00 0.00 46 1012.7
20260503231018 59 236 9.0 11.0 0.00 0.00 0.00 45 1012.6
20260503230022 60 226 10.0 15.0 0.00 0.00 0.00 44 1012.6
20260503225026 60 223 9.0 11.0 0.00 0.00 0.00 44 1012.7
20260503224031 60 225 8.0 13.0 0.00 0.00 0.00 45 1012.8
20260503223016 59 233 13.0 17.0 0.00 0.00 0.00 45 1012.9
20260503222021 60 228 13.0 16.0 0.00 0.00 0.00 45 1012.9
20260503221025 59 234 13.0 17.0 0.00 0.00 0.00 45 1012.9
20260503220029 59 223 12.0 18.0 0.00 0.00 0.00 46 1012.9
20260503215016 59 234 9.0 12.0 0.00 0.00 0.00 44 1012.8
20260503214020 59 230 10.0 13.0 0.00 0.00 0.00 46 1012.7
20260503213024 59 230 8.0 10.0 0.00 0.00 0.00 46 1012.7
20260503212023 59 249 10.0 18.0 0.00 0.00 0.00 45 1012.7
20260503211015 60 224 13.0 16.0 0.00 0.00 0.00 45 1012.6
20260503210039 61 228 9.0 11.0 0.00 0.00 0.00 44 1012.7
20260503205018 61 244 8.0 11.0 0.00 0.00 0.00 45 1012.7
20260503204015 60 225 11.0 13.0 0.00 0.00 0.00 45 1012.8
20260503203032 60 215 11.0 19.0 0.00 0.00 0.00 46 1012.9
20260503202019 60 224 12.0 15.0 0.00 0.00 0.00 44 1013.0
20260503201023 61 226 11.0 13.0 0.00 0.00 0.00 45 1013.1
20260503200047 62 230 6.0 11.0 0.00 0.00 0.00 39 1013.2
20260503195051 63 229 5.0 9.0 0.00 0.00 0.00 41 1013.4
20260503194037 62 240 6.0 10.0 0.00 0.00 0.00 38 1013.6
20260503193022 62 255 6.0 9.0 0.00 0.00 0.00 39 1013.8
20260503192026 63 257 7.0 13.0 0.00 0.00 0.00 39 1013.9
20260503191051 64 253 5.0 9.0 0.00 0.00 0.00 38 1014.1
20260503190016 63 250 8.0 12.0 0.00 0.00 0.00 38 1014.3
20260503185021 61 229 12.0 18.0 0.00 0.00 0.00 39 1014.3
20260503184026 62 232 10.0 17.0 0.00 0.00 0.00 41 1014.3
20260503183030 60 257 8.0 14.0 0.00 0.00 0.00 38 1014.5
20260503182036 61 251 8.0 11.0 0.00 0.00 0.00 40 1014.6
20260503181020 62 242 8.0 13.0 0.00 0.00 0.00 39 1014.8
20260503180025 61 243 8.0 11.0 0.00 0.00 0.00 39 1014.9
20260503175029 60 236 11.0 19.0 0.00 0.00 0.00 41 1014.9
20260503174015 61 233 5.0 9.0 0.00 0.00 0.00 44 1014.9
20260503173020 60 240 9.0 13.0 0.00 0.00 0.00 41 1014.9
20260503172024 59 250 7.0 11.0 0.00 0.00 0.00 42 1015.1
20260503171028 59 268 8.0 12.0 0.00 0.00 0.00 42 1015.2
20260503131018 46 202 6.0 8.0 0.00 0.00 0.00 60 1017.0
20260503081021 34 181 3.0 4.0 0.00 0.01 0.00 89 1016.6
20260503072049 34 185 2.0 3.0 0.00 0.01 0.00 89 1016.7
20260503071049 34 171 2.0 3.0 0.00 0.01 0.00 89 1016.6
20260503055047 34 0.0 0.0 0.00 0.01 0.00 90 1017.1
20260503054032 35 0.0 0.0 0.00 0.01 0.00 89 1017.1
20260503053039 35 144 1.0 2.0 0.00 0.01 0.00 89 1017.1
20260503052022 35 203 0.0 2.0 0.00 0.01 0.00 88 1017.2
20260503051052 35 0.0 0.0 0.00 0.01 0.00 88 1017.2
20260503050031 35 0.0 0.0 0.00 0.01 0.00 87 1017.3
20260503045017 36 0.0 0.0 0.00 0.01 0.00 86 1017.3
20260503044042 36 0.0 0.0 0.00 0.01 0.00 86 1017.3
20260503043027 36 0.0 0.0 0.00 0.01 0.00 86 1017.3
20260503042051 37 0.0 0.0 0.00 0.01 0.00 85 1017.5
20260503041016 38 0.0 0.0 0.00 0.01 0.00 84 1017.5
20260503040021 38 0.0 0.0 0.00 0.01 0.00 84 1017.5
20260503035025 38 203 2.0 2.0 0.00 0.01 0.01 84 1017.6
20260503034023 39 208 2.0 3.0 0.00 0.01 0.01 84 1017.7
20260503033015 39 219 1.0 3.0 0.00 0.01 0.01 83 1017.7
20260503032020 39 0.0 0.0 0.00 0.01 0.01 81 1017.9
20260503031018 39 158 0.0 2.0 0.00 0.01 0.01 81 1017.7
20260503030037 39 197 3.0 3.0 0.00 0.01 0.01 83 1017.9
20260503025015 39 201 2.0 3.0 0.00 0.01 0.01 82 1018.0
20260503024040 39 203 1.0 2.0 0.00 0.01 0.01 82 1018.0
20260503023024 39 0.0 0.0 0.00 0.01 0.01 82 1018.0
20260503022028 40 0.0 0.0 0.00 0.01 0.01 81 1018.2
20260503021032 40 0.0 0.0 0.00 0.01 0.01 79 1018.0
20260503020019 40 218 1.0 2.0 0.00 0.01 0.01 80 1018.0
20260503015023 40 197 2.0 2.0 0.00 0.01 0.01 80 1018.0
20260503014027 41 0.0 0.0 0.00 0.01 0.01 78 1018.0
20260503013032 41 219 1.0 2.0 0.00 0.01 0.01 77 1018.0
20260503012018 41 270 0.0 2.0 0.00 0.01 0.01 72 1018.0
20260503011022 41 0.0 0.0 0.00 0.01 0.01 72 1018.0
20260503010027 41 268 1.0 2.0 0.00 0.01 0.01 70 1018.0
20260503005031 41 262 2.0 3.0 0.00 0.01 0.01 70 1018.0
20260503004017 41 260 1.0 2.0 0.00 0.01 0.01 69 1017.9
20260503003022 41 248 1.0 2.0 0.00 0.01 0.01 69 1017.9
20260503002026 41 255 2.0 3.0 0.00 0.01 0.01 68 1017.9
20260503001031 42 296 1.0 2.0 0.00 0.01 0.01 68 1017.9
20260503000017 42 299 1.0 2.0 0.00 0.01 0.01 68 1017.7
20260502235021 42 255 1.0 3.0 0.00 0.01 0.01 66 1017.7
20260502234045 42 23 1.0 2.0 0.00 0.01 0.01 66 1017.7